Regional Weather Roundup
Issued by NWS

Home | Current Version | Previous Version | Graphics & Text | Print | Product List | Glossary Off
Versions: 1 2 3 4 5 6 7 8 9 10 11 12 13 14 15 16 17 18 19 20 21 22 23 24 25 26 27 28 29 30 31 32 33 34 35 36 37 38 39 40 41 42 43 44 45 46 47 48 49 50

000
ASUS43 KMKX 201011
RWRWI

WISCONSIN REGIONAL WEATHER ROUNDUP
NATIONAL WEATHER SERVICE MILWAUKEE/SULLIVAN WI
500 AM CDT SUN AUG 20 2017

NOTE: "FAIR" INDICATES FEW OR NO CLOUDS BELOW 12,000 FEET WITH NO
SIGNIFICANT WEATHER AND/OR OBSTRUCTIONS TO VISIBILITY.

WIZ001-002-006>008-014>016-023>028-201100-
NORTHWEST WISCONSIN

CITY           SKY/WX    TMP DP  RH WIND       PRES   REMARKS
SUPERIOR ARPT  FOG       54  54 100 CALM      29.86R VSB 1/4
ASHLAND        CLEAR     55  55 100 SW6       29.89R
HAYWARD        CLEAR     54  52  93 CALM      29.92R
SIREN          CLOUDY    62  60  94 S7        29.90R
CUMBERLAND     CLOUDY    55  55 100 CALM      29.93R FOG
RICE LAKE      CLOUDY    59  58  97 SE3       29.94R FOG
CHETEK         CLOUDY    59  59 100 CALM      29.94R
LADYSMITH      CLOUDY    60  59  94 S5        29.97R
EAU CLAIRE     CLOUDY    62  60  93 CALM      29.92S
MENOMONIE      CLOUDY    59  58  97 E5        29.92F
NEW RICHMOND   CLOUDY    61  61  98 CALM      29.90F
OSCEOLA        CLOUDY    63  63 100 CALM      29.91F
$$

WIZ003>005-009-010-017-018-201100-
NORTH CENTRAL WISCONSIN

CITY           SKY/WX    TMP DP  RH WIND       PRES   REMARKS
MANITOWISH WTR FOG       54  54 100 S5        29.95R VSB 3/4
ARBOR VITAE    CLEAR     57  56  96 CALM      29.97R FOG
WOODRUFF       CLEAR     57  56  96 CALM      29.97R FOG
RHINELANDER    PTCLDY    55  55 100 SW5       29.98R FOG
EAGLE RIVER    CLOUDY    54  54 100 CALM      29.96R FOG
LAND O LAKES   CLEAR     50  50 100 CALM      29.98R FOG
PHILLIPS       CLOUDY    58  58 100 CALM      29.96R
TOMAHAWK         N/A     49  49  97 CALM      29.97S
MEDFORD        CLOUDY    56  55  97 S6        29.98R
MERRILL        CLEAR     50  50 100 NE3       29.98S
$$

WIZ029-030-035-036-043>047-201100-
CENTRAL WISCONSIN

CITY           SKY/WX    TMP DP  RH WIND       PRES   REMARKS
WAUSAU         CLEAR     55  55 100 E5        29.97R
MOSINEE        CLEAR     55  55 100 CALM      30.00R
MARSHFIELD     CLOUDY    57  55  93 S5        29.98R
STEVENS POINT  CLEAR     53  53 100 CALM      29.99S
WAUPACA        CLEAR     57  56  98 CALM      29.98S
WAUTOMA        NOT AVBL
WISC RAPIDS    CLOUDY    59  58  96 SW3       30.00R
CAMP DOUGLAS   CLOUDY    58  58  98 S6        29.97S
$$

WIZ011>013-019>022-031-037>040-048>050-201100-
NORTHEAST WISCONSIN

CITY           SKY/WX    TMP DP  RH WIND       PRES   REMARKS
ANTIGO         CLEAR     53  53 100 CALM      29.99R
SHAWANO        CLEAR     60  58  94 SW3       29.98R
OCONTO         CLEAR     55  55  97 CALM      29.97R
STURGEON BAY   CLEAR     62  59  90 SW3       29.98
GREEN BAY      CLEAR     57  57 100 CALM      29.98S FOG
MANITOWOC      CLEAR     63  60  90 W5        30.00R
APPLETON       CLEAR     61  57  88 S3        29.98S
CLINTONVILLE   PTCLDY    54  54 100 CALM      29.98R
OSHKOSH        PTCLDY    62  59  90 SW5       29.98R
$$

WIZ032>034-041-042-053>061-201100-
SOUTHWEST WISCONSIN

CITY           SKY/WX    TMP DP  RH WIND       PRES   REMARKS
LA CROSSE      CLOUDY    64  61  90 SE6       29.93F
SPARTA         CLOUDY    51  51  99 CALM      29.97F
VIROQUA        CLOUDY    63  62  96 CALM      29.98S
BOSCOBEL       CLOUDY    60  59  96 CALM      29.98R FOG
PRAIRIE DU CHI MOCLDY    61  58  92 E5        29.96F
PLATTEVILLE    MOCLDY    62  62  98 SE5       30.00R
$$

WIZ056-057-062-063-064-067-068-201100-
SOUTH CENTRAL WISCONSIN

CITY           SKY/WX    TMP DP  RH WIND       PRES   REMARKS
REEDSBURG      CLOUDY    56  56 100 CALM      29.98S FOG
BARABOO/DELLS  CLOUDY    59  57  92 S6        29.99S
LONE ROCK      PTCLDY    57  57 100 CALM      29.99R FOG
MINERAL POINT  CLEAR     63  63 100 SE5       30.00S
MADISON        CLOUDY    62  59  90 CALM      30.00R
MIDDLETON      CLOUDY    58  58 100 CALM      30.00S
WATERTOWN      CLEAR     57  57 100 CALM      30.01R
MONROE         CLEAR     63  55  77 S8        30.00S
JANESVILLE     CLEAR     59  59 100 CALM      30.01R
$$

WIZ051-052-058>065-066-070>072-201100-
SOUTHEAST WISCONSIN

CITY           SKY/WX    TMP DP  RH WIND       PRES   REMARKS
MILWAUKEE      CLEAR     66  57  72 S3        30.01R
WAUKESHA       CLEAR     59  57  94 CALM      30.02R
MILWAUKEE/TIMM CLEAR     59  55  88 CALM      30.02R
RACINE         CLEAR     61  57  87 SW3       30.02R
KENOSHA        CLEAR     57  55  93 CALM      30.01R
FOND DU LAC    LGT RAIN  60  57  89 S5        30.00R
SHEBOYGAN      CLEAR     60  60 100 CALM      30.00R
WEST BEND      CLEAR     55  55 100 CALM      30.01R FOG
JUNEAU         CLEAR     59  58  96 CALM      30.02R
$$

LSZ147-162-201100-
LAKE SUPERIOR

STATION/POSITION TIME  TEMP    WIND        PRES    WAVE
                       AIR SEA DIR/SP/G            HT/PER
                 (UTC) (F)     (DEG/KT/KT) (MB)    (FT/S)
W MID LAKE BUOY  0950   62 59  210/ 10/ 12 1010.6F   1/ 3
DEVILS ISLAND    1000   66     180/  7/  8 1011.1R
SAXON HARBOR     0940   64     200/  6/  9 1011.5S
$$

LMZ867-665-643>646-201100-
LAKE MICHIGAN

STATION/POSITION TIME  TEMP    WIND        PRES    WAVE
                       AIR SEA DIR/SP/G            HT/PER
                 (UTC) (F)     (DEG/KT/KT) (MB)    (FT/S)
S GREEN BAY BUOY 0930   70 71  220/  8/ 12 1014.3R
N MID LAKE BUOY  0950   68 67  240/  8/ 10 1014.3R   1/ 4
NORTHPORT PIER   0940   66     240/  1/  5 1013.9S
KEWAUNEE LAKESHO 0942   65     300/  5/  6 1014.1R
SHEBOYGAN LAKESH 1000   66     210/  5/  6 1015.4R
PORT WASHINGTON  0940   65     260/  4/  4 1016.6R
ATWATER BUOY     0909   71 70  170/  8/  8 1015.9
MILWAUKEE LAKESH 0950   69     230/  6/  7   N/A
S MID LAKE BUOY  0950   72 71  180/  8/  8 1016.2R   1
KENOSHA   LAKESH 1000   67     190/  4/  5 1015.9
$$

TC  - TEMPERATURE IN CELSIUS
VSB - VISIBILITY IN STATUTE MILES
WCI - WIND CHILL INDEX
HX  - HEAT INDEX





USA.gov is the U.S. government's official web portal to all federal, state and local government web resources and services.